Weather History for Big Rapids, MI

Change the Weather History Date:

Tuesday, August 27, 2013

  Actual Average Record
Temperature  
Mean Temperature 77 °F -  
Max Temperature 85 °F 78 °F 97 °F (1973)
Min Temperature 69 °F 56 °F 34 °F (1986)
Cooling Degree Days 12    
Growing Degree Days 27 (Base 50)    
Moisture  
Dew Point 72 °F    
Average Humidity 92    
Maximum Humidity 100    
Minimum Humidity 69    
Precipitation  
Precipitation 0.82 in - - ()
Sea Level Pressure  
Sea Level Pressure 29.91 in    
Wind  
Wind Speed 5 mph (South)    
Max Wind Speed 18 mph    
Max Gust Speed 40 mph    
Visibility 8 miles    
Events Rain    
Averages and records for this station are not official NWS values.
T = Trace of Precipitation, MM = Missing Value Source: NWS Daily Summary

Daily Weather History Graph

Daily Weather History Graph

Search for Another Location

Airport:

Trip Planner

Search our weather history database for the weather conditions in past years. The results will help you decide how hot, cold, wet, or windy it might be!

Date:

Astronomy

Aug. 27, 2013 Rise Set
Actual Time 7:00 AM EDT 8:25 PM EDT
Civil Twilight 6:30 AM EDT 8:55 PM EDT
Nautical Twilight 5:54 AM EDT 9:31 PM EDT
Astronomical Twilight 5:15 AM EDT 10:09 PM EDT
Moon No Moon Rise 2:11 PM EDT (8/27)
Length of Visible Light 14h 25m
Length of Day
13h 25m
Waning Gibbous, 57% of the Moon is Illuminated
Aug 27
Waning Gibbous
Aug 28
Last Quarter
Sep 5
New
Sep 12
First Quarter
Sep 19
Full

Hourly Weather History & Observations

Time (EDT) Temp. Heat Index Dew Point Humidity Pressure Visibility Wind Dir Wind Speed Gust Speed Precip Events Conditions
12:15 AM 71.1 °F - 66.7 °F 86% 29.97 in 7.0 mi Calm Calm - N/A   Clear
12:35 AM 70.5 °F - 68.4 °F 93% 29.97 in 7.0 mi NW 3.5 mph - N/A   Clear
12:54 AM 70.2 °F - 68.7 °F 95% 29.97 in 7.0 mi Calm Calm - N/A   Scattered Clouds
1:15 AM 69.8 °F - 68.4 °F 95% 29.96 in 7.0 mi SSE 3.5 mph - N/A   Overcast
1:35 AM 71.1 °F - 69.6 °F 95% 29.96 in 7.0 mi WNW 4.6 mph - N/A   Overcast
1:55 AM 71.1 °F - 69.3 °F 94% 29.96 in 7.0 mi SSW 3.5 mph - N/A   Overcast
2:15 AM 71.1 °F - 69.3 °F 94% 29.95 in 7.0 mi South 5.8 mph - N/A   Overcast
2:35 AM 71.1 °F - 69.4 °F 95% 29.96 in 7.0 mi Calm Calm - N/A   Overcast
2:55 AM 71.6 °F - 69.8 °F 94% 29.96 in 7.0 mi South 5.8 mph - N/A   Overcast
3:15 AM 71.8 °F - 69.8 °F 93% 29.95 in 7.0 mi SSW 6.9 mph - N/A   Mostly Cloudy
3:35 AM 71.8 °F - 69.8 °F 93% 29.93 in 7.0 mi SSW 6.9 mph - N/A   Mostly Cloudy
3:55 AM 71.6 °F - 70.0 °F 95% 29.93 in 7.0 mi Calm Calm - N/A   Mostly Cloudy
4:15 AM 71.8 °F - 70.2 °F 95% 29.93 in 7.0 mi Calm Calm - N/A   Overcast
4:34 AM 72.9 °F - 71.6 °F 96% 29.98 in 5.0 mi NW 18.4 mph 36.8 mph 0.01 in Rain Heavy Rain
4:55 AM 71.8 °F - 70.0 °F 94% 29.99 in 3.0 mi North 16.1 mph 40.3 mph 0.31 in Rain Rain
5:15 AM 71.6 °F - 70.2 °F 95% 30.00 in 10.0 mi North 11.5 mph - 0.01 in Rain Light Rain
5:34 AM 71.4 °F - 70.3 °F 96% 30.01 in 7.0 mi NNE 5.8 mph - 0.04 in Rain Rain
5:55 AM 70.7 °F - 70.7 °F 100% 29.99 in 5.0 mi NE 3.5 mph - 0.08 in Rain Rain
6:15 AM 70.7 °F - 70.7 °F 100% 29.97 in 7.0 mi SSW 5.8 mph - 0.03 in Rain Rain
6:35 AM 70.2 °F - 70.2 °F 100% 29.95 in 10.0 mi SSE 4.6 mph - 0.05 in Rain Light Rain
6:55 AM 70.2 °F - 70.2 °F 100% 29.96 in 10.0 mi SSE 3.5 mph - 0.06 in Rain Light Rain
7:15 AM 70.0 °F - 70.0 °F 100% 29.96 in 10.0 mi SW 3.5 mph - N/A Rain Light Rain
7:35 AM 70.2 °F - 70.2 °F 100% 29.96 in 10.0 mi SSE 4.6 mph - N/A   Scattered Clouds
7:55 AM 70.3 °F - 70.3 °F 100% 29.96 in 10.0 mi SSE 3.5 mph - N/A   Scattered Clouds
8:15 AM 70.2 °F - 70.2 °F 100% 29.95 in 10.0 mi SSE 5.8 mph - N/A   Scattered Clouds
8:35 AM 70.3 °F - 70.3 °F 100% 29.95 in 10.0 mi South 4.6 mph - N/A   Scattered Clouds
8:55 AM 70.7 °F - 70.7 °F 100% 29.95 in 10.0 mi South 4.6 mph - N/A   Scattered Clouds
9:15 AM 71.1 °F - 71.1 °F 100% 29.95 in 10.0 mi South 5.8 mph - N/A   Scattered Clouds
9:35 AM 71.1 °F - 71.1 °F 100% 29.95 in 10.0 mi SSE 3.5 mph - N/A   Clear
9:55 AM 71.6 °F - 71.6 °F 100% 29.95 in 10.0 mi South 3.5 mph - N/A   Clear
10:15 AM 72.3 °F - 71.8 °F 98% 29.95 in 10.0 mi South 4.6 mph - N/A   Clear
10:35 AM 73.4 °F - 72.3 °F 96% 29.94 in 10.0 mi South 5.8 mph - N/A   Clear
10:55 AM 74.3 °F - 72.3 °F 94% 29.94 in 10.0 mi South 6.9 mph - N/A   Clear
11:15 AM 75.0 °F - 72.7 °F 92% 29.94 in 10.0 mi South 6.9 mph - N/A   Clear
11:35 AM 76.1 °F - 73.0 °F 90% 29.94 in 10.0 mi SSW 5.8 mph - N/A   Clear
11:55 AM 76.5 °F - 73.2 °F 90% 29.94 in 10.0 mi SSW 5.8 mph - N/A   Clear
12:14 PM 77.0 °F - 74.1 °F 91% 29.93 in 10.0 mi South 5.8 mph - N/A   Clear
12:35 PM 78.1 °F - 72.3 °F 82% 29.94 in 10.0 mi SW 3.5 mph - N/A   Clear
12:55 PM 77.9 °F - 71.6 °F 81% 29.94 in 10.0 mi SSE 3.5 mph - N/A   Clear
1:14 PM 77.9 °F - 72.3 °F 83% 29.93 in 10.0 mi South 5.8 mph - N/A   Clear
1:35 PM 77.9 °F - 72.0 °F 82% 29.92 in 10.0 mi South 4.6 mph - N/A   Clear
1:55 PM 77.9 °F - 72.1 °F 82% 29.92 in 10.0 mi SSE 8.1 mph - N/A   Clear
2:15 PM 78.4 °F - 72.9 °F 83% 29.91 in 10.0 mi South 9.2 mph - N/A   Scattered Clouds
2:35 PM 80.8 °F 85.6 °F 73.4 °F 78% 29.90 in 10.0 mi SSW 6.9 mph - N/A   Mostly Cloudy
2:55 PM 82.4 °F 88.4 °F 73.9 °F 75% 29.89 in 10.0 mi South 11.5 mph 18.4 mph N/A   Scattered Clouds
3:15 PM 84.2 °F 92.3 °F 75.0 °F 74% 29.87 in 10.0 mi South 8.1 mph - N/A   Scattered Clouds
3:35 PM 84.4 °F 92.0 °F 74.5 °F 72% 29.85 in 10.0 mi South 10.4 mph 19.6 mph N/A   Scattered Clouds
3:55 PM 85.1 °F 92.6 °F 73.9 °F 69% 29.85 in 10.0 mi South 13.8 mph 19.6 mph N/A   Mostly Cloudy
4:15 PM 83.7 °F 89.7 °F 72.9 °F 70% 29.84 in 10.0 mi SSW 15.0 mph 20.7 mph N/A   Overcast
4:35 PM 82.6 °F 88.3 °F 73.2 °F 73% 29.83 in 10.0 mi SSW 8.1 mph 17.3 mph N/A Rain Light Rain
4:54 PM 81.5 °F 87.2 °F 74.1 °F 78% 29.83 in 7.0 mi SW 4.6 mph - N/A Rain Light Rain
5:15 PM 81.0 °F 86.3 °F 74.1 °F 80% 29.84 in 10.0 mi WSW 3.5 mph - N/A   Overcast
5:35 PM 80.1 °F 84.5 °F 73.8 °F 81% 29.86 in 10.0 mi North 5.8 mph - N/A   Overcast
5:54 PM 81.5 °F 85.9 °F 71.6 °F 72% 29.86 in 10.0 mi Calm Calm - N/A   Overcast
6:15 PM 79.5 °F - 74.7 °F 85% 29.86 in 5.0 mi SSE 4.6 mph - 0.01 in Rain Light Rain
6:35 PM 79.5 °F - 77.7 °F 94% 29.85 in 7.0 mi ESE 5.8 mph - 0.01 in   Mostly Cloudy
6:54 PM 79.2 °F - 77.2 °F 94% 29.84 in 7.0 mi SE 4.6 mph - 0.01 in   Mostly Cloudy
7:15 PM 78.1 °F - 77.0 °F 96% 29.84 in 7.0 mi ESE 4.6 mph - N/A   Overcast
7:35 PM 77.0 °F - 77.0 °F 100% 29.86 in 0.8 mi East 4.6 mph - 0.35 in Rain Rain
7:54 PM 76.3 °F - 76.3 °F 100% 29.86 in 4.0 mi Calm Calm - 0.36 in   Overcast
8:15 PM 76.1 °F - 76.1 °F 100% 29.85 in 5.0 mi NE 3.5 mph - N/A   Overcast
8:35 PM 75.2 °F - 75.2 °F 100% 29.84 in 5.0 mi ENE 3.5 mph - N/A   Overcast
8:54 PM 75.2 °F - 75.2 °F 100% 29.85 in 7.0 mi NNE 6.9 mph - N/A Rain Light Rain
9:15 PM 74.5 °F - 74.5 °F 100% 29.85 in 7.0 mi East 3.5 mph - N/A Rain Light Rain
9:35 PM 74.5 °F - 74.5 °F 100% 29.84 in 10.0 mi SSE 3.5 mph - N/A   Scattered Clouds
9:55 PM 74.3 °F - 74.3 °F 100% 29.84 in 10.0 mi Calm Calm - N/A   Scattered Clouds
10:15 PM 73.9 °F - 73.9 °F 100% 29.84 in 7.0 mi Calm Calm - N/A   Mostly Cloudy
10:35 PM 73.8 °F - 73.8 °F 100% 29.84 in 7.0 mi NE 3.5 mph - N/A   Scattered Clouds
10:55 PM 73.6 °F - 73.6 °F 100% 29.84 in 7.0 mi Calm Calm - N/A   Scattered Clouds
11:15 PM 73.4 °F - 73.4 °F 100% 29.84 in 5.0 mi West 6.9 mph - N/A   Mostly Cloudy
11:34 PM 73.0 °F - 73.0 °F 100% 29.84 in 5.0 mi Calm Calm - N/A   Overcast
11:55 PM 72.9 °F - 72.9 °F 100% 29.84 in 4.0 mi NNE 4.6 mph - N/A   Overcast